contact:dominique.lefevre@mio.osupytheas.fr, maurice.libes@osupytheas.fr, didier.mallarino@osupytheas.fr
Project:EMSO http://www.emso-fr.org/EMSO-France
Depth: 2436.0 m
Title:EMSO Ligure Ouest : Data MII capteur AQUADOPP
Date,Latitude,Longitude,X_East,Y_North,Z_Up,Amplitude_X,Amplitude_Y,Amplitude_Z,Batterie,SoundSpeed,Heading,Pitch,Roll,Pressure,TIS,Speed,Direction
, degrees North, degrees East, m.s-1, m.s-1,m.s-1, 1, 1, 1, Volt, m.s-1, degree, degree, degree, dbar, degree_C, m.s-1, degree
2023-05-25T00:04:03,42.805,6.029,-0.063,0.0,-0.046,101.0,101.0,100.0,13.3,1505.2,331.3,-0.8,1.8,2471.535,13.28,0.062,270.0
2023-05-25T00:07:03,42.805,6.029,-0.039,0.014,-0.026,101.0,102.0,101.0,13.4,1505.2,330.9,-0.8,1.8,2471.545,13.28,0.041,289.7
2023-05-25T00:10:03,42.805,6.029,-0.038,0.013,-0.036,100.0,101.0,100.0,13.3,1505.2,332.5,-0.8,1.8,2471.529,13.28,0.04,288.9
2023-05-25T00:13:03,42.805,6.029,-0.035,0.003,-0.032,102.0,102.0,99.0,13.4,1505.2,331.2,-0.8,1.8,2471.529,13.29,0.035,274.9
2023-05-25T00:16:03,42.805,6.029,-0.057,0.009,-0.052,100.0,100.0,102.0,13.4,1505.2,331.3,-0.8,1.8,2471.53,13.29,0.057,279.0
2023-05-25T00:19:03,42.805,6.029,-0.041,0.008,-0.003,103.0,102.0,100.0,13.4,1505.2,332.1,-0.7,1.8,2471.524,13.29,0.041,281.0
2023-05-25T00:22:03,42.805,6.029,-0.027,0.016,0.023,101.0,101.0,102.0,13.4,1505.2,335.5,-0.8,1.8,2471.469,13.29,0.031,300.7
2023-05-25T00:25:03,42.805,6.029,-0.049,0.028,-0.029,101.0,101.0,100.0,13.4,1505.2,340.2,-0.7,1.8,2471.516,13.29,0.056,299.7
2023-05-25T00:28:03,42.805,6.029,-0.033,0.005,-0.016,103.0,102.0,100.0,13.3,1505.2,327.8,-0.8,1.8,2471.481,13.29,0.033,278.6
2023-05-25T00:31:03,42.805,6.029,-0.044,0.017,-0.048,103.0,101.0,100.0,13.3,1505.2,334.7,-0.8,1.8,2471.503,13.29,0.047,291.1
2023-05-25T00:34:03,42.805,6.029,-0.04,-0.004,-0.029,101.0,102.0,100.0,13.4,1505.2,324.5,-0.7,1.8,2471.471,13.29,0.04,264.3
2023-05-25T00:37:03,42.805,6.029,-0.037,-0.008,-0.023,100.0,103.0,101.0,13.4,1505.2,326.6,-0.8,1.8,2471.495,13.29,0.037,257.8
2023-05-25T00:40:03,42.805,6.029,-0.043,0.013,-0.045,101.0,100.0,101.0,13.3,1505.2,329.8,-0.7,1.8,2471.457,13.29,0.044,286.8
2023-05-25T00:43:03,42.805,6.029,-0.05,0.016,-0.009,99.0,102.0,101.0,13.4,1505.2,316.9,-0.8,1.8,2471.474,13.29,0.052,287.7
2023-05-25T00:46:03,42.805,6.029,-0.038,-0.004,-0.032,101.0,101.0,100.0,13.4,1505.2,332.5,-0.8,1.8,2471.498,13.29,0.038,264.0
2023-05-25T00:49:03,42.805,6.029,-0.052,-0.005,-0.066,101.0,101.0,101.0,13.3,1505.2,339.0,-0.7,1.8,2471.51,13.29,0.052,264.5
2023-05-25T00:52:03,42.805,6.029,-0.025,0.023,0.0,103.0,102.0,100.0,13.3,1505.2,344.2,-0.8,1.8,2471.459,13.29,0.033,312.6
2023-05-25T00:55:03,42.805,6.029,-0.027,0.011,-0.031,99.0,103.0,101.0,13.3,1505.2,327.8,-0.7,1.8,2471.472,13.29,0.029,292.2
2023-05-25T00:58:03,42.805,6.029,-0.026,0.001,-0.011,102.0,101.0,101.0,13.4,1505.2,333.8,-0.8,1.8,2471.455,13.29,0.026,272.2
2023-05-25T01:04:03,42.805,6.029,-0.045,0.012,-0.034,103.0,102.0,101.0,13.4,1505.2,346.8,-0.8,1.8,2471.484,13.28,0.046,284.9
2023-05-25T01:07:03,42.805,6.029,-0.029,0.006,-0.042,102.0,100.0,101.0,13.4,1505.2,335.0,-0.8,1.8,2471.491,13.28,0.029,281.7
2023-05-25T01:10:03,42.805,6.029,-0.063,0.019,-0.038,102.0,101.0,101.0,13.4,1505.2,339.3,-0.8,1.8,2471.455,13.28,0.065,286.8
2023-05-25T01:13:03,42.805,6.029,-0.02,0.027,-0.01,101.0,102.0,101.0,13.4,1505.2,346.4,-0.8,1.8,2471.508,13.29,0.033,323.5
2023-05-25T01:16:03,42.805,6.029,-0.049,-0.026,-0.027,103.0,100.0,100.0,13.4,1505.2,322.4,-0.8,1.8,2471.434,13.29,0.055,242.1
2023-05-25T01:19:03,42.805,6.029,-0.058,0.008,-0.044,103.0,101.0,100.0,13.4,1505.2,330.7,-0.8,1.8,2471.457,13.29,0.058,277.8
2023-05-25T01:22:02,42.805,6.029,-0.035,-0.001,-0.007,102.0,100.0,101.0,13.4,1505.2,324.6,-0.7,1.8,2471.478,13.29,0.035,268.4
2023-05-25T01:25:03,42.805,6.029,-0.046,0.01,-0.035,101.0,102.0,100.0,13.4,1505.2,326.6,-0.7,1.8,2471.445,13.29,0.047,282.3
2023-05-25T01:28:03,42.805,6.029,-0.027,0.008,-0.026,101.0,101.0,101.0,13.3,1505.2,333.4,-0.7,1.8,2471.438,13.29,0.028,286.5
2023-05-25T01:31:03,42.805,6.029,-0.05,0.019,-0.003,102.0,100.0,100.0,13.3,1505.2,326.8,-0.7,1.8,2471.498,13.29,0.053,290.8
2023-05-25T01:34:03,42.805,6.029,-0.041,0.003,-0.035,102.0,101.0,101.0,13.3,1505.2,332.9,-0.8,1.8,2471.445,13.29,0.041,274.2
2023-05-25T01:37:03,42.805,6.029,-0.045,0.005,-0.042,100.0,102.0,102.0,13.3,1505.2,344.3,-0.8,1.8,2471.44,13.29,0.045,276.3
2023-05-25T01:40:03,42.805,6.029,-0.015,-0.004,-0.027,101.0,102.0,101.0,13.3,1505.2,327.3,-0.8,1.8,2471.456,13.29,0.015,255.1
2023-05-25T01:43:03,42.805,6.029,-0.027,-0.006,-0.025,100.0,101.0,101.0,13.4,1505.2,319.4,-0.8,1.8,2471.431,13.29,0.027,257.5
2023-05-25T01:46:03,42.805,6.029,-0.046,-0.005,-0.031,102.0,103.0,100.0,13.3,1505.2,319.1,-0.8,1.9,2471.479,13.29,0.046,263.8
2023-05-25T01:49:03,42.805,6.029,-0.037,-0.009,-0.053,102.0,101.0,101.0,13.4,1505.2,337.9,-0.8,1.8,2471.439,13.29,0.038,256.3
2023-05-25T01:52:03,42.805,6.029,-0.041,-0.004,-0.045,102.0,101.0,100.0,13.4,1505.2,331.0,-0.7,1.8,2471.43,13.29,0.041,264.4
2023-05-25T01:55:03,42.805,6.029,-0.041,0.002,-0.034,101.0,101.0,100.0,13.4,1505.2,334.9,-0.8,1.8,2471.456,13.29,0.041,272.8
2023-05-25T01:58:03,42.805,6.029,-0.024,-0.004,-0.055,102.0,101.0,101.0,13.4,1505.2,340.4,-0.8,1.8,2471.401,13.29,0.024,260.5
2023-05-25T02:04:03,42.805,6.029,-0.032,-0.008,-0.042,102.0,102.0,99.0,13.4,1505.2,343.3,-0.8,1.8,2471.522,13.28,0.032,256.0
2023-05-25T02:07:03,42.805,6.029,-0.022,0.022,-0.034,103.0,100.0,101.0,13.4,1505.2,335.1,-0.8,1.8,2471.5,13.28,0.031,315.0
2023-05-25T02:10:03,42.805,6.029,-0.05,0.001,-0.036,102.0,101.0,101.0,13.4,1505.2,332.9,-0.7,1.8,2471.489,13.28,0.05,271.1
2023-05-25T02:13:03,42.805,6.029,-0.032,0.01,-0.021,102.0,100.0,101.0,13.3,1505.2,330.3,-0.8,1.8,2471.477,13.29,0.033,287.4
2023-05-25T02:16:03,42.805,6.029,-0.047,-0.01,-0.077,102.0,102.0,101.0,13.4,1505.2,336.3,-0.8,1.8,2471.445,13.29,0.048,258.0
2023-05-25T02:19:03,42.805,6.029,-0.045,0.032,-0.042,103.0,101.0,101.0,13.4,1505.2,332.0,-0.8,1.8,2471.413,13.29,0.055,305.4
2023-05-25T02:22:03,42.805,6.029,-0.039,-0.008,-0.049,101.0,102.0,101.0,13.4,1505.2,328.7,-0.7,1.8,2471.454,13.29,0.039,258.4
2023-05-25T02:25:03,42.805,6.029,-0.038,0.009,0.002,103.0,101.0,102.0,13.4,1505.2,330.4,-0.8,1.8,2471.446,13.29,0.039,283.3
2023-05-25T02:28:03,42.805,6.029,-0.048,0.006,-0.026,102.0,101.0,101.0,13.4,1505.2,330.9,-0.8,1.8,2471.405,13.29,0.048,277.1
2023-05-25T02:31:03,42.805,6.029,-0.021,-0.012,-0.059,102.0,102.0,101.0,13.4,1505.2,347.3,-0.8,1.8,2471.436,13.29,0.024,240.3
2023-05-25T02:34:03,42.805,6.029,-0.008,-0.01,-0.03,102.0,102.0,100.0,13.4,1505.2,323.4,-0.7,1.8,2471.467,13.29,0.012,218.7
2023-05-25T02:37:03,42.805,6.029,-0.05,0.012,-0.022,102.0,102.0,101.0,13.3,1505.2,321.3,-0.8,1.8,2471.405,13.29,0.051,283.5
2023-05-25T02:40:03,42.805,6.029,-0.038,-0.005,-0.033,104.0,102.0,101.0,13.3,1505.2,339.1,-0.7,1.8,2471.46,13.29,0.038,262.5
2023-05-25T02:43:03,42.805,6.029,-0.03,0.004,-0.031,104.0,102.0,99.0,13.4,1505.2,341.1,-0.7,1.8,2471.415,13.29,0.03,277.6
2023-05-25T02:46:03,42.805,6.029,-0.058,-0.006,-0.005,102.0,101.0,101.0,13.4,1505.2,326.3,-0.7,1.8,2471.399,13.29,0.058,264.1
2023-05-25T02:49:03,42.805,6.029,-0.03,-0.012,-0.015,103.0,103.0,100.0,13.4,1505.2,326.6,-0.8,1.8,2471.406,13.29,0.032,248.2
2023-05-25T02:52:03,42.805,6.029,-0.054,0.012,-0.024,103.0,102.0,100.0,13.4,1505.2,340.0,-0.8,1.8,2471.412,13.29,0.055,282.5
2023-05-25T02:55:03,42.805,6.029,-0.027,0.011,-0.018,102.0,102.0,101.0,13.4,1505.2,344.3,-0.7,1.8,2471.409,13.29,0.029,292.2
2023-05-25T02:58:03,42.805,6.029,-0.051,0.003,-0.033,102.0,101.0,101.0,13.4,1505.2,326.3,-0.8,1.8,2471.441,13.29,0.051,273.4
2023-05-25T03:04:03,42.805,6.029,-0.041,-0.005,-0.029,102.0,101.0,102.0,13.4,1505.2,336.1,-0.8,1.8,2471.437,13.28,0.041,263.0
2023-05-25T03:07:03,42.805,6.029,-0.04,0.015,-0.043,102.0,102.0,100.0,13.4,1505.2,337.1,-0.7,1.8,2471.495,13.28,0.042,290.6
2023-05-25T03:10:03,42.805,6.029,-0.013,0.013,-0.044,102.0,101.0,101.0,13.4,1505.2,348.6,-0.8,1.8,2471.437,13.28,0.018,315.0
2023-05-25T03:13:03,42.805,6.029,-0.015,0.015,-0.005,102.0,102.0,101.0,13.4,1505.2,342.2,-0.8,1.8,2471.432,13.29,0.021,315.0
2023-05-25T03:16:03,42.805,6.029,-0.01,0.003,-0.033,102.0,102.0,101.0,13.4,1505.2,334.2,-0.8,1.8,2471.408,13.29,0.01,286.7
2023-05-25T03:19:03,42.805,6.029,-0.033,0.008,-0.043,103.0,102.0,101.0,13.4,1505.2,331.3,-0.8,1.8,2471.416,13.29,0.033,283.6
2023-05-25T03:22:03,42.805,6.029,-0.043,0.011,-0.014,101.0,102.0,101.0,13.4,1505.2,325.2,-0.8,1.8,2471.447,13.29,0.044,284.3
2023-05-25T03:25:03,42.805,6.029,-0.043,0.017,-0.055,101.0,103.0,101.0,13.4,1505.2,348.0,-0.7,1.8,2471.404,13.29,0.046,291.6
2023-05-25T03:28:03,42.805,6.029,-0.023,-0.002,-0.024,102.0,102.0,102.0,13.4,1505.2,327.5,-0.7,1.8,2471.384,13.29,0.023,265.0
2023-05-25T03:31:03,42.805,6.029,-0.036,-0.022,-0.063,102.0,102.0,100.0,13.3,1505.2,326.8,-0.8,1.8,2471.397,13.29,0.042,238.6
2023-05-25T03:34:03,42.805,6.029,-0.05,0.006,-0.025,102.0,102.0,102.0,13.4,1505.2,327.6,-0.8,1.8,2471.435,13.29,0.05,276.8
2023-05-25T03:37:03,42.805,6.029,-0.059,0.028,-0.035,102.0,102.0,101.0,13.3,1505.2,343.4,-0.7,1.8,2471.414,13.29,0.065,295.4
2023-05-25T03:40:03,42.805,6.029,-0.026,-0.003,-0.052,103.0,101.0,100.0,13.4,1505.2,318.9,-0.7,1.8,2471.389,13.29,0.026,263.4
2023-05-25T03:43:03,42.805,6.029,-0.049,-0.012,-0.051,103.0,101.0,104.0,13.4,1505.2,323.5,-0.8,1.8,2471.415,13.29,0.05,256.2
2023-05-25T03:46:03,42.805,6.029,-0.034,-0.012,-0.022,102.0,101.0,101.0,13.4,1505.2,317.6,-0.8,1.8,2471.422,13.29,0.036,250.6
2023-05-25T03:49:03,42.805,6.029,-0.025,0.005,-0.021,103.0,103.0,101.0,13.3,1505.2,336.0,-0.8,1.8,2471.415,13.29,0.025,281.3
2023-05-25T03:52:03,42.805,6.029,-0.02,-0.003,-0.052,102.0,102.0,101.0,13.3,1505.2,336.1,-0.7,1.8,2471.408,13.29,0.02,261.5
2023-05-25T03:55:03,42.805,6.029,-0.056,-0.003,-0.04,102.0,102.0,101.0,13.3,1505.2,336.8,-0.7,1.8,2471.395,13.29,0.056,266.9
2023-05-25T03:58:03,42.805,6.029,-0.036,0.015,-0.002,102.0,102.0,101.0,13.4,1505.2,323.5,-0.8,1.8,2471.386,13.29,0.039,292.6
2023-05-25T04:04:03,42.805,6.029,-0.036,-0.006,-0.077,102.0,101.0,101.0,13.3,1505.2,336.9,-0.8,1.8,2471.408,13.28,0.036,260.5
2023-05-25T04:07:03,42.805,6.029,-0.037,0.015,-0.013,104.0,101.0,101.0,13.3,1505.2,330.0,-0.8,1.8,2471.423,13.28,0.039,292.1
2023-05-25T04:10:03,42.805,6.029,-0.021,-0.015,-0.045,102.0,102.0,102.0,13.4,1505.2,326.8,-0.8,1.8,2471.403,13.28,0.025,234.5
2023-05-25T04:13:03,42.805,6.029,-0.04,-0.017,-0.028,103.0,101.0,102.0,13.3,1505.2,324.3,-0.8,1.8,2471.403,13.29,0.043,247.0
2023-05-25T04:16:03,42.805,6.029,-0.039,0.019,-0.013,102.0,102.0,101.0,13.4,1505.2,320.6,-0.7,1.8,2471.412,13.29,0.043,296.0
2023-05-25T04:19:03,42.805,6.029,-0.059,-0.011,-0.073,103.0,101.0,101.0,13.4,1505.2,332.5,-0.8,1.8,2471.371,13.29,0.06,259.4
2023-05-25T04:22:03,42.805,6.029,-0.057,-0.021,-0.047,102.0,103.0,101.0,13.3,1505.2,325.1,-0.8,1.8,2471.414,13.29,0.06,249.8
2023-05-25T04:25:03,42.805,6.029,-0.026,0.009,-0.004,103.0,102.0,102.0,13.4,1505.2,346.8,-0.8,1.8,2471.33,13.29,0.027,289.1
2023-05-25T04:28:03,42.805,6.029,-0.031,0.002,-0.006,100.0,102.0,102.0,13.3,1505.2,332.6,-0.8,1.8,2471.365,13.29,0.031,273.7
2023-05-25T04:31:03,42.805,6.029,-0.075,0.006,-0.021,102.0,103.0,102.0,13.4,1505.2,328.1,-0.8,1.8,2471.373,13.29,0.075,274.6
2023-05-25T04:34:03,42.805,6.029,-0.033,0.022,0.002,102.0,102.0,102.0,13.3,1505.2,337.5,-0.8,1.8,2471.363,13.29,0.039,303.7
2023-05-25T04:37:03,42.805,6.029,-0.045,0.002,-0.061,101.0,103.0,100.0,13.4,1505.2,325.4,-0.8,1.8,2471.379,13.29,0.045,272.5
2023-05-25T04:40:03,42.805,6.029,-0.046,0.014,-0.034,102.0,102.0,101.0,13.4,1505.2,328.2,-0.8,1.8,2471.361,13.29,0.048,286.9
2023-05-25T04:43:03,42.805,6.029,-0.012,0.016,-0.041,103.0,101.0,101.0,13.4,1505.2,348.6,-0.8,1.8,2471.338,13.29,0.02,323.1
2023-05-25T04:46:03,42.805,6.029,-0.057,0.038,-0.002,102.0,102.0,102.0,13.3,1505.2,318.9,-0.8,1.8,2471.372,13.29,0.068,303.7
2023-05-25T04:49:03,42.805,6.029,-0.013,0.013,-0.017,104.0,101.0,100.0,13.3,1505.2,332.3,-0.8,1.8,2471.365,13.29,0.018,315.0
2023-05-25T04:52:03,42.805,6.029,-0.031,0.014,-0.015,103.0,102.0,101.0,13.4,1505.2,325.4,-0.8,1.8,2471.311,13.29,0.034,294.3
2023-05-25T04:55:03,42.805,6.029,-0.036,0.015,-0.006,102.0,102.0,102.0,13.4,1505.2,345.9,-0.8,1.8,2471.351,13.29,0.039,292.6
2023-05-25T04:58:03,42.805,6.029,-0.049,-0.011,-0.056,101.0,102.0,101.0,13.4,1505.2,319.4,-0.7,1.8,2471.406,13.29,0.05,257.3
2023-05-25T05:04:03,42.805,6.029,-0.035,-0.018,-0.023,102.0,102.0,101.0,13.4,1505.2,329.0,-0.8,1.8,2471.392,13.28,0.039,242.8
2023-05-25T05:07:03,42.805,6.029,-0.036,-0.003,-0.038,102.0,101.0,102.0,13.4,1505.2,326.0,-0.8,1.8,2471.389,13.28,0.036,265.2
2023-05-25T05:10:03,42.805,6.029,-0.029,-0.008,-0.042,102.0,101.0,101.0,13.4,1505.2,347.5,-0.7,1.8,2471.395,13.28,0.03,254.6
2023-05-25T05:13:03,42.805,6.029,-0.022,-0.027,-0.035,103.0,103.0,101.0,13.3,1505.2,317.5,-0.8,1.8,2471.391,13.29,0.034,219.2
2023-05-25T05:16:03,42.805,6.029,-0.034,-0.011,-0.051,102.0,103.0,102.0,13.4,1505.2,330.3,-0.8,1.8,2471.345,13.29,0.035,252.1
2023-05-25T05:19:03,42.805,6.029,-0.03,0.006,-0.031,102.0,103.0,101.0,13.4,1505.2,333.9,-0.8,1.8,2471.386,13.29,0.03,281.3
2023-05-25T05:22:03,42.805,6.029,-0.049,-0.014,-0.042,104.0,102.0,101.0,13.4,1505.2,330.7,-0.8,1.8,2471.38,13.29,0.05,254.1
2023-05-25T05:25:03,42.805,6.029,-0.027,-0.001,-0.04,102.0,103.0,102.0,13.4,1505.2,347.0,-0.8,1.8,2471.337,13.29,0.027,267.9
2023-05-25T05:28:03,42.805,6.029,-0.057,-0.006,-0.026,101.0,103.0,102.0,13.4,1505.2,320.6,-0.8,1.8,2471.367,13.29,0.057,264.0
2023-05-25T05:31:03,42.805,6.029,-0.042,0.02,-0.008,101.0,101.0,102.0,13.3,1505.2,335.8,-0.7,1.8,2471.355,13.29,0.046,295.5
2023-05-25T05:34:03,42.805,6.029,-0.031,0.019,-0.026,102.0,102.0,101.0,13.3,1505.2,327.8,-0.7,1.8,2471.37,13.29,0.036,301.5
2023-05-25T05:37:03,42.805,6.029,-0.042,0.001,-0.01,103.0,102.0,101.0,13.3,1505.2,331.9,-0.8,1.8,2471.367,13.29,0.042,271.4
2023-05-25T05:40:03,42.805,6.029,-0.044,0.04,-0.015,102.0,101.0,100.0,13.4,1505.2,343.0,-0.7,1.8,2471.353,13.29,0.059,312.3
2023-05-25T05:43:03,42.805,6.029,-0.021,-0.002,-0.057,102.0,101.0,102.0,13.4,1505.2,331.8,-0.8,1.8,2471.333,13.29,0.021,264.6
2023-05-25T05:46:03,42.805,6.029,-0.04,0.003,-0.027,102.0,102.0,101.0,13.3,1505.2,323.3,-0.7,1.8,2471.317,13.29,0.04,274.3
2023-05-25T05:49:03,42.805,6.029,-0.019,0.006,-0.033,103.0,103.0,102.0,13.4,1505.2,330.7,-0.8,1.8,2471.36,13.29,0.019,287.5
2023-05-25T05:52:03,42.805,6.029,-0.043,0.017,-0.044,102.0,101.0,101.0,13.4,1505.2,336.9,-0.7,1.8,2471.365,13.29,0.046,291.6
2023-05-25T05:55:03,42.805,6.029,-0.049,0.021,-0.015,102.0,102.0,101.0,13.4,1505.2,333.9,-0.8,1.8,2471.35,13.29,0.053,293.2
2023-05-25T05:58:03,42.805,6.029,-0.023,-0.003,-0.046,102.0,101.0,101.0,13.3,1505.2,328.8,-0.8,1.8,2471.363,13.29,0.023,262.6
2023-05-25T06:04:03,42.805,6.029,-0.036,-0.013,-0.073,102.0,101.0,101.0,13.4,1505.2,334.3,-0.8,1.8,2471.405,13.28,0.038,250.1
2023-05-25T06:07:03,42.805,6.029,-0.04,0.001,-0.077,102.0,102.0,101.0,13.3,1505.2,340.4,-0.8,1.8,2471.401,13.28,0.04,271.4
2023-05-25T06:10:03,42.805,6.029,-0.045,0.016,-0.02,102.0,101.0,101.0,13.4,1505.2,342.7,-0.8,1.8,2471.375,13.28,0.047,289.6
2023-05-25T06:13:03,42.805,6.029,-0.052,-0.01,-0.025,102.0,102.0,101.0,13.4,1505.2,323.6,-0.8,1.8,2471.362,13.29,0.052,259.1
2023-05-25T06:16:03,42.805,6.029,-0.061,0.006,-0.033,102.0,103.0,100.0,13.3,1505.2,327.8,-0.8,1.8,2471.378,13.29,0.061,275.6
2023-05-25T06:19:03,42.805,6.029,-0.042,-0.022,-0.062,102.0,102.0,101.0,13.3,1505.2,326.3,-0.7,1.8,2471.353,13.29,0.047,242.4
2023-05-25T06:22:03,42.805,6.029,-0.042,-0.006,-0.029,103.0,101.0,101.0,13.4,1505.2,348.6,-0.7,1.9,2471.363,13.29,0.042,261.9
2023-05-25T06:25:03,42.805,6.029,-0.036,0.002,-0.017,102.0,101.0,101.0,13.4,1505.2,336.5,-0.8,1.8,2471.363,13.29,0.036,273.2
2023-05-25T06:28:03,42.805,6.029,-0.022,0.009,-0.007,103.0,102.0,100.0,13.4,1505.2,327.4,-0.7,1.8,2471.367,13.29,0.023,292.2
2023-05-25T06:31:03,42.805,6.029,-0.02,0.017,-0.015,103.0,101.0,100.0,13.3,1505.2,340.8,-0.8,1.8,2471.34,13.29,0.026,310.4
2023-05-25T06:34:03,42.805,6.029,-0.03,0.01,-0.017,101.0,102.0,101.0,13.3,1505.2,341.5,-0.8,1.9,2471.343,13.29,0.031,288.4
2023-05-25T06:37:03,42.805,6.029,-0.068,-0.006,-0.059,103.0,102.0,101.0,13.4,1505.2,325.3,-0.8,1.8,2471.329,13.29,0.068,265.0
2023-05-25T06:40:03,42.805,6.029,-0.064,-0.004,-0.022,102.0,102.0,101.0,13.4,1505.2,326.5,-0.8,1.8,2471.361,13.29,0.064,266.4
2023-05-25T06:43:03,42.805,6.029,-0.046,0.012,-0.028,103.0,101.0,101.0,13.4,1505.2,342.9,-0.8,1.8,2471.359,13.29,0.047,284.6
2023-05-25T06:46:03,42.805,6.029,-0.066,-0.021,-0.055,102.0,102.0,101.0,13.4,1505.2,319.4,-0.8,1.8,2471.353,13.29,0.069,252.4
2023-05-25T06:49:03,42.805,6.029,-0.029,0.01,0.017,102.0,102.0,101.0,13.4,1505.2,333.9,-0.8,1.8,2471.346,13.29,0.03,289.0
2023-05-25T06:52:03,42.805,6.029,-0.019,-0.015,-0.055,102.0,102.0,101.0,13.4,1505.2,326.0,-0.8,1.8,2471.339,13.29,0.024,231.7
2023-05-25T06:55:03,42.805,6.029,-0.044,0.015,-0.059,102.0,101.0,101.0,13.4,1505.2,344.5,-0.8,1.8,2471.381,13.29,0.046,288.8
2023-05-25T06:58:03,42.805,6.029,-0.041,0.019,-0.028,103.0,102.0,100.0,13.4,1505.2,326.0,-0.8,1.9,2471.345,13.29,0.045,294.9
2023-05-25T07:04:03,42.805,6.029,-0.035,0.018,-0.016,102.0,101.0,101.0,13.4,1505.2,333.8,-0.8,1.8,2471.391,13.28,0.039,297.2
2023-05-25T07:07:03,42.805,6.029,-0.051,0.002,-0.02,102.0,102.0,101.0,13.3,1505.2,325.7,-0.8,1.8,2471.421,13.28,0.051,272.2
2023-05-25T07:10:03,42.805,6.029,-0.025,0.023,-0.055,102.0,101.0,101.0,13.3,1505.2,345.9,-0.7,1.8,2471.401,13.28,0.033,312.6
2023-05-25T07:13:03,42.805,6.029,-0.03,0.001,-0.053,102.0,102.0,100.0,13.4,1505.2,320.6,-0.8,1.8,2471.416,13.28,0.03,271.9
2023-05-25T07:16:03,42.805,6.029,-0.063,-0.007,-0.078,102.0,101.0,101.0,13.4,1505.2,324.4,-0.8,1.8,2471.357,13.29,0.063,263.7
2023-05-25T07:19:03,42.805,6.029,-0.031,0.002,-0.083,101.0,101.0,101.0,13.4,1505.2,325.4,-0.7,1.8,2471.398,13.29,0.031,273.7
2023-05-25T07:22:03,42.805,6.029,-0.044,-0.003,-0.056,103.0,102.0,102.0,13.3,1505.2,332.9,-0.8,1.8,2471.359,13.29,0.044,266.1
2023-05-25T07:25:03,42.805,6.029,-0.024,0.017,-0.039,102.0,102.0,101.0,13.4,1505.2,345.6,-0.8,1.9,2471.418,13.29,0.029,305.3
2023-05-25T07:28:03,42.805,6.029,-0.047,0.01,-0.019,102.0,101.0,101.0,13.4,1505.2,333.8,-0.7,1.8,2471.35,13.29,0.048,282.0
2023-05-25T07:31:03,42.805,6.029,-0.041,0.009,-0.046,103.0,101.0,100.0,13.4,1505.2,327.5,-0.8,1.8,2471.357,13.29,0.041,282.4
2023-05-25T07:34:03,42.805,6.029,-0.034,0.04,-0.033,103.0,102.0,102.0,13.4,1505.2,333.0,-0.7,1.8,2471.376,13.29,0.052,319.6
2023-05-25T07:37:03,42.805,6.029,-0.042,0.041,-0.027,102.0,102.0,101.0,13.3,1505.2,335.5,-0.8,1.8,2471.374,13.29,0.058,314.3
2023-05-25T07:40:03,42.805,6.029,-0.03,0.023,-0.037,103.0,102.0,101.0,13.3,1505.2,333.4,-0.8,1.8,2471.357,13.29,0.037,307.5
2023-05-25T07:43:03,42.805,6.029,-0.015,0.027,-0.002,103.0,102.0,101.0,13.4,1505.2,346.7,-0.8,1.8,2471.364,13.29,0.03,330.9
2023-05-25T07:46:03,42.805,6.029,-0.053,0.02,-0.031,104.0,101.0,101.0,13.4,1505.2,323.1,-0.8,1.8,2471.342,13.29,0.056,290.7
2023-05-25T07:49:03,42.805,6.029,-0.038,0.019,-0.025,103.0,100.0,101.0,13.4,1505.2,339.0,-0.8,1.8,2471.36,13.29,0.042,296.6
2023-05-25T07:52:03,42.805,6.029,-0.028,0.009,-0.041,100.0,101.0,101.0,13.4,1505.2,328.2,-0.8,1.8,2471.349,13.29,0.029,287.8
2023-05-25T07:55:03,42.805,6.029,-0.031,0.007,-0.027,102.0,102.0,101.0,13.4,1505.2,332.5,-0.8,1.8,2471.381,13.29,0.031,282.7
2023-05-25T07:58:03,42.805,6.029,-0.027,0.007,-0.061,102.0,101.0,101.0,13.4,1505.2,330.2,-0.8,1.8,2471.363,13.29,0.027,284.5
2023-05-25T08:04:03,42.805,6.029,-0.028,0.021,-0.044,103.0,101.0,101.0,13.4,1505.2,346.5,-0.8,1.8,2471.421,13.28,0.035,306.9
2023-05-25T08:07:03,42.805,6.029,-0.026,-0.003,-0.02,101.0,102.0,101.0,13.4,1505.2,334.6,-0.8,1.8,2471.389,13.28,0.026,263.4
2023-05-25T08:10:03,42.805,6.029,-0.02,0.018,-0.005,103.0,101.0,101.0,13.3,1505.2,320.7,-0.8,1.8,2471.385,13.28,0.026,312.0
2023-05-25T08:13:03,42.805,6.029,-0.04,0.016,-0.022,102.0,103.0,102.0,13.4,1505.2,324.3,-0.7,1.8,2471.406,13.28,0.043,291.8
2023-05-25T08:16:03,42.805,6.029,-0.032,-0.008,-0.057,101.0,101.0,101.0,13.4,1505.2,322.4,-0.8,1.8,2471.42,13.29,0.032,256.0
2023-05-25T08:19:03,42.805,6.029,-0.044,0.026,-0.03,102.0,101.0,102.0,13.4,1505.2,336.2,-0.8,1.8,2471.395,13.29,0.051,300.6
2023-05-25T08:22:03,42.805,6.029,-0.037,0.011,-0.025,103.0,101.0,101.0,13.3,1505.2,324.8,-0.8,1.8,2471.418,13.29,0.038,286.6
2023-05-25T08:25:03,42.805,6.029,-0.027,0.013,-0.05,102.0,102.0,101.0,13.4,1505.2,345.9,-0.8,1.8,2471.385,13.29,0.029,295.7
2023-05-25T08:28:03,42.805,6.029,-0.056,0.014,-0.068,101.0,101.0,101.0,13.4,1505.2,324.0,-0.8,1.8,2471.413,13.29,0.057,284.0
2023-05-25T08:31:03,42.805,6.029,-0.047,0.021,-0.053,101.0,101.0,102.0,13.4,1505.2,339.0,-0.7,1.8,2471.367,13.29,0.051,294.1
2023-05-25T08:34:03,42.805,6.029,-0.049,0.02,-0.034,102.0,102.0,101.0,13.4,1505.2,336.6,-0.7,1.8,2471.377,13.29,0.052,292.2
2023-05-25T08:37:03,42.805,6.029,-0.043,0.022,-0.044,103.0,101.0,101.0,13.3,1505.2,328.7,-0.8,1.8,2471.35,13.29,0.048,297.1
2023-05-25T08:40:03,42.805,6.029,-0.052,0.036,-0.026,103.0,102.0,101.0,13.4,1505.2,341.5,-0.8,1.8,2471.361,13.29,0.063,304.7
2023-05-25T08:43:03,42.805,6.029,-0.045,0.046,-0.031,102.0,101.0,101.0,13.3,1505.2,342.5,-0.8,1.8,2471.385,13.29,0.064,315.6
2023-05-25T08:46:03,42.805,6.029,-0.021,0.027,-0.021,102.0,102.0,101.0,13.4,1505.2,338.6,-0.8,1.8,2471.403,13.29,0.034,322.1
2023-05-25T08:49:03,42.805,6.029,-0.04,0.003,-0.052,102.0,102.0,101.0,13.4,1505.2,337.8,-0.8,1.8,2471.374,13.29,0.04,274.3
2023-05-25T08:52:03,42.805,6.029,-0.042,0.021,-0.027,103.0,102.0,101.0,13.3,1505.2,323.3,-0.8,1.8,2471.35,13.29,0.046,296.6
2023-05-25T08:55:03,42.805,6.029,-0.05,0.008,-0.019,103.0,101.0,101.0,13.4,1505.2,327.1,-0.8,1.8,2471.378,13.29,0.05,279.1
2023-05-25T08:58:03,42.805,6.029,-0.041,0.043,-0.02,102.0,102.0,101.0,13.4,1505.2,347.0,-0.8,1.8,2471.391,13.29,0.059,316.4
2023-05-25T09:04:03,42.805,6.029,-0.043,0.024,-0.012,102.0,101.0,101.0,13.4,1505.2,321.2,-0.7,1.8,2471.431,13.28,0.049,299.2
2023-05-25T09:07:03,42.805,6.029,-0.058,0.019,-0.067,100.0,103.0,101.0,13.3,1505.2,335.0,-0.8,1.8,2471.457,13.28,0.061,288.1
2023-05-25T09:10:03,42.805,6.029,-0.057,0.068,-0.007,102.0,102.0,102.0,13.4,1505.2,345.9,-0.7,1.8,2471.412,13.28,0.088,320.0
2023-05-25T09:13:03,42.805,6.029,-0.025,0.005,-0.038,103.0,102.0,101.0,13.4,1505.2,320.0,-0.7,1.8,2471.382,13.29,0.025,281.3
2023-05-25T09:16:03,42.805,6.029,-0.03,0.004,-0.066,101.0,103.0,101.0,13.3,1505.2,336.8,-0.7,1.8,2471.406,13.29,0.03,277.6
2023-05-25T09:19:03,42.805,6.029,-0.063,0.008,-0.04,102.0,103.0,101.0,13.4,1505.2,331.3,-0.8,1.8,2471.418,13.29,0.063,277.2
2023-05-25T09:22:03,42.805,6.029,-0.015,0.018,-0.014,103.0,102.0,101.0,13.4,1505.2,345.9,-0.8,1.8,2471.441,13.29,0.023,320.2
2023-05-25T09:25:03,42.805,6.029,-0.045,0.013,-0.041,101.0,102.0,102.0,13.4,1505.2,322.4,-0.8,1.8,2471.385,13.29,0.046,286.1
2023-05-25T09:28:03,42.805,6.029,-0.044,0.01,-0.026,102.0,102.0,101.0,13.4,1505.2,325.0,-0.7,1.8,2471.382,13.29,0.045,282.8
2023-05-25T09:31:03,42.805,6.029,-0.048,0.011,-0.011,102.0,102.0,102.0,13.4,1505.2,327.3,-0.8,1.8,2471.408,13.29,0.049,282.9
2023-05-25T09:34:03,42.805,6.029,-0.031,0.01,-0.032,102.0,102.0,101.0,13.4,1505.2,326.6,-0.8,1.8,2471.361,13.29,0.032,287.9
2023-05-25T09:37:03,42.805,6.029,-0.028,0.007,-0.036,104.0,100.0,102.0,13.3,1505.2,336.1,-0.8,1.8,2471.369,13.29,0.028,284.0
2023-05-25T09:40:03,42.805,6.029,-0.033,0.023,0.002,102.0,103.0,100.0,13.4,1505.2,338.5,-0.7,1.8,2471.395,13.29,0.04,304.9
2023-05-25T09:43:03,42.805,6.029,-0.056,0.012,-0.055,102.0,102.0,100.0,13.4,1505.2,322.5,-0.8,1.8,2471.42,13.29,0.057,282.1
2023-05-25T09:46:03,42.805,6.029,-0.043,0.028,-0.029,103.0,102.0,102.0,13.3,1505.2,332.1,-0.8,1.8,2471.375,13.29,0.051,303.1
2023-05-25T09:49:03,42.805,6.029,-0.053,0.045,-0.031,102.0,102.0,101.0,13.3,1505.2,346.2,-0.8,1.8,2471.398,13.29,0.069,310.3
2023-05-25T09:52:03,42.805,6.029,-0.042,0.007,-0.035,101.0,102.0,102.0,13.4,1505.2,337.9,-0.7,1.8,2471.387,13.29,0.042,279.5